SCP
0 0 0 0 0 0 0 0 0 0 0 0 0 0 0 0 0 0 0 0 0 0 0 0 0 0 0 0 0 0 0 0 0 0 0 0 0 0 0 0 0 0 0
0 0 0 1 1 0 0 0 0 0 0 0 0 0 0 0 0 0 0 0 0 0 0 0 0 0 0 0 0 0 0 0 0 0 0 0 0 0 0 0 0 0 0
0 0 0 1 1 1 0 0 0 0 0 0 0 0 0 0 0 0 0 0 0 0 0 0 0 0 0 0 0 0 0 0 0 0 0 0 0 0 0 0 0 0 0
0 0 0 1 1 1 0 0 0 0 0 0 0 0 0 0 0 0 0 0 0 0 0 0 0 0 0 0 0 0 0 0 0 0 0 0 0 0 0 0 0 0 0
0 0 0 1 1 1 0 0 0 0 0 0 0 0 0 0 0 0 0 0 0 0 0 0 0 0 0 0 0 0 0 0 0 0 0 0 0 0 0 0 0 0 0
0 0 0 1 1 1 0 0 0 0 0 0 0 0 0 0 0 0 0 0 0 0 0 0 0 0 0 0 0 0 0 0 0 0 0 0 0 0 0 0 0 0 0
0 0 0 1 1 1 0 0 0 0 0 0 0 0 0 0 0 0 0 0 0 0 0 0 0 0 0 0 0 0 0 0 0 0 0 0 0 0 0 0 0 0 0
0 0 0 1 1 1 0 0 0 0 0 0 0 0 0 0 0 0 0 0 0 0 0 0 0 0 0 0 0 0 0 0 0 0 0 0 0 0 0 0 0 0 0
0 0 0 0 0 0 0 0 0 0 0 0 0 0 0 0 0 0 0 0 0 0 0 0 0 0 0 0 0 0 0 0 0 0 0 0 0 0 0 0 0 0 0
0 0 0 0 0 0 0 0 0 0 0 0 0 0 0 0 0 0 0 0 0 0 0 0 0 0 0 0 0 0 0 0 0 0 0 0 0 0 0 0 0 0 0
0 0 0 0 0 0 0 0 0 0 0 0 0 0 0 0 0 0 0 0 0 0 0 0 0 0 0 0 0 0 0 0 0 0 0 0 0 0 0 0 0 0 0
0 0 0 0 0 0 0 0 0 0 0 0 0 0 0 0 0 0 0 0 0 0 0 0 0 0 0 0 0 0 0 0 0 0 0 0 0 0 0 0 0 0 0
0 0 0 0 0 0 0 0 0 0 0 0 0 0 0 0 0 0 0 0 0 0 0 0 0 0 0 0 0 0 0 0 0 0 0 0 0 0 0 0 0 0 0
0 0 0 0 0 0 0 0 0 0 0 0 0 0 0 0 0 0 0 0 0 0 0 0 0 0 0 0 0 0 0 0 0 0 0 0 0 0 0 0 0 0 0
0 0 0 0 0 0 0 0 0 0 0 0 0 0 0 0 0 0 0 0 0 0 0 0 0 0 0 0 0 0 0 0 0 0 0 0 0 0 0 0 0 0 0
0 0 0 0 0 0 0 0 0 0 0 0 0 0 0 0 0 0 0 0 0 0 0 0 0 0 0 0 0 0 0 0 0 0 0 0 0 0 0 0 0 0 0
0 0 0 0 0 0 0 0 0 0 0 0 0 0 0 0 0 0 0 0 0 0 0 0 0 0 0 0 0 0 0 0 0 0 0 0 0 0 0 0 0 0 0
0 0 0 0 0 0 0 0 0 0 0 0 0 0 0 0 0 0 0 0 0 0 0 0 0 0 0 0 0 0 0 0 0 0 0 0 0 0 0 0 0 0 0
0 0 0 0 0 0 0 0 0 0 0 0 0 0 0 0 0 0 0 0 0 0 0 0 0 0 0 0 0 0 0 0 0 0 0 0 0 0 0 0 0 0 0
0 0 0 0 0 0 0 0 0 0 0 0 0 0 0 0 0 0 0 0 0 0 0 0 0 0 0 0 0 0 0 0 0 0 0 0 0 0 0 0 0 0 0
0 0 0 0 0 0 0 0 0 0 0 0 0 0 0 0 0 0 0 0 0 0 0 0 0 0 0 0 0 0 0 0 0 0 0 0 0 0 0 0 0 0 0
0 0 0 0 0 0 0 0 0 0 0 0 0 0 0 0 0 0 0 0 0 0 0 0 0 0 0 0 0 0 0 0 0 0 0 0 0 0 0 0 0 0 0
0 0 0 1 1 0 0 0 0 0 0 0 0 0 0 0 0 0 0 0 0 0 0 0 0 0 0 0 0 0 0 0 0 0 0 0 0 0 0 0 0 0 0
0 0 0 1 1 1 0 0 0 0 0 0 0 0 0 0 0 0 0 0 0 0 0 0 0 0 0 0 0 0 0 0 0 0 0 0 0 0 0 0 0 0 0
0 0 1 1 1 1 1 0 0 0 0 0 0 0 0 0 0 0 0 0 0 0 0 0 0 0 0 0 0 0 0 0 0 0 0 0 0 0 0 0 0 0 0
1 1 1 1 1 1 1 1 0 0 0 0 0 0 0 0 0 0 0 0 0 0 0 0 0 0 0 0 0 0 0 0 0 0 0 0 0 0 0 0 0 0 0
Wind_Speed
3 4 9 8 7 6 6 7 8 8 8 8 8 8 9 9 8 8 8 7 7 7 8 8 8 8 8 9 10 10 11 11 12 13 12 12 11 10 10 10 9 7 10
6 6 10 9 8 7 7 7 7 7 7 7 7 8 8 8 8 8 7 7 7 7 7 7 8 8 8 9 9 10 10 10 11 11 11 11 11 10 10 10 9 6 10
7 6 8 9 8 7 7 7 7 7 7 7 7 8 7 8 7 7 7 7 6 7 7 7 7 7 7 7 8 9 10 10 10 10 9 6 7 10 10 10 10 9 9
7 5 6 10 9 8 7 7 6 7 7 7 7 7 7 7 7 6 6 6 6 6 6 6 6 6 6 6 6 8 8 9 9 9 5 5 5 9 9 9 9 9 9
6 5 6 10 9 8 7 7 6 6 6 6 6 6 6 6 6 6 5 5 6 6 5 6 6 5 5 5 6 7 7 8 8 6 4 4 3 7 8 9 9 9 9
5 4 5 10 9 8 7 6 6 6 6 6 5 5 5 5 5 5 5 5 5 4 5 5 5 4 4 4 5 6 6 7 6 4 4 4 3 6 7 8 8 8 9
5 3 4 9 8 7 7 6 5 5 5 4 4 4 4 4 3 3 4 4 3 3 4 4 4 4 3 3 5 7 7 7 6 5 4 4 4 6 6 7 7 8 8
6 4 3 7 8 7 6 5 5 4 4 3 3 2 3 3 2 2 3 3 3 2 3 3 4 3 4 4 6 8 7 6 5 5 4 4 5 6 6 6 7 7 8
4 4 2 3 4 6 6 5 4 3 2 2 2 2 2 2 1 2 2 3 3 2 2 2 3 3 4 5 6 7 6 6 4 3 4 3 5 6 6 6 7 7 8
3 2 2 2 2 1 2 4 4 3 2 1 1 1 1 2 2 2 2 2 2 2 2 2 2 3 4 5 6 6 6 5 3 3 2 3 6 6 7 6 7 7 8
3 2 2 2 1 1 1 2 2 2 1 0 1 2 2 2 2 2 2 2 2 3 3 2 3 5 5 5 6 5 5 2 3 2 2 4 5 6 7 6 7 7 8
5 4 3 3 2 1 1 0 0 0 1 1 1 2 2 2 2 3 4 4 4 4 3 3 3 4 4 3 4 4 2 3 2 2 2 5 5 6 6 6 7 7 8
5 4 4 3 2 2 1 0 0 0 1 1 1 1 1 2 2 2 2 3 3 4 3 3 2 2 3 3 3 2 2 2 1 1 2 4 4 5 5 6 6 7 7
5 5 4 4 3 2 1 1 1 0 0 0 1 1 1 1 1 2 2 2 2 2 3 3 2 3 3 3 3 3 2 2 1 1 1 4 4 4 4 5 5 6 6
5 5 4 4 4 3 2 1 1 1 0 0 0 1 1 1 1 1 1 2 2 2 2 3 2 3 3 3 2 3 2 2 1 1 0 2 3 2 3 4 4 5 5
6 6 4 4 4 3 2 2 1 1 1 0 0 0 1 1 0 1 1 2 2 2 2 2 2 2 2 2 2 2 2 2 1 1 1 0 2 2 2 3 3 4 4
6 5 5 5 4 4 3 2 2 1 1 1 0 0 1 1 1 1 1 1 1 1 2 2 3 2 2 2 2 2 2 1 1 1 1 1 0 1 1 1 2 3 3
5 5 5 5 5 4 3 2 2 1 1 1 0 0 1 1 1 1 1 1 1 1 1 2 2 2 2 2 1 1 1 1 1 0 1 1 0 1 0 0 1 2 3
7 6 6 5 5 5 4 2 1 1 1 0 0 0 0 1 1 1 1 1 1 1 1 1 2 1 2 1 1 1 1 1 0 0 0 0 1 1 1 1 0 0 1
6 6 6 5 5 4 3 2 1 1 1 0 0 0 0 0 1 1 1 1 1 1 1 1 2 2 1 1 2 2 1 1 1 1 0 0 1 0 0 1 1 1 0
5 6 7 6 5 4 3 2 2 1 0 0 0 0 0 0 1 1 1 1 1 1 1 1 2 2 1 1 2 2 2 2 2 1 1 1 1 1 1 0 0 1 1
6 7 7 7 6 5 4 2 2 2 1 1 0 0 0 0 1 1 1 1 1 1 1 1 1 1 1 1 1 1 1 2 2 1 1 1 1 1 1 0 0 0 1
6 7 7 7 6 5 4 3 3 2 2 1 1 1 1 0 1 1 1 1 1 1 1 0 1 2 1 0 1 2 2 1 1 1 1 1 1 0 0 1 0 0 0
7 6 6 6 6 5 5 5 4 3 2 2 1 1 0 0 0 1 1 1 1 1 1 1 1 1 2 1 0 0 1 2 2 0 1 1 1 0 0 0 1 1 0
5 5 6 6 6 5 5 6 5 3 2 1 1 1 0 1 0 0 1 1 1 1 1 1 1 1 1 2 1 1 1 1 1 1 1 1 1 1 0 0 0 0 1
4 5 5 6 5 5 5 5 5 4 3 2 1 1 1 1 0 0 1 1 1 1 1 1 1 1 1 1 1 1 1 1 2 2 2 1 1 1 1 0 0 1 1
Wind_Direction
178 173 162 153 144 134 124 113 105 100 97 93 91 94 96 96 95 95 94 93 92 92 95 100 111 117 122 129 136 138 139 141 143 144 143 141 137 137 138 136 133 132 132
152 157 158 153 148 139 129 119 110 105 102 97 94 95 94 93 93 93 92 94 96 97 98 100 107 113 120 128 136 140 142 144 145 146 145 141 140 140 141 141 138 134 138
139 151 155 154 151 144 134 125 117 110 104 98 95 96 96 95 94 92 89 91 96 100 102 102 106 110 118 126 134 142 144 145 147 146 144 135 141 146 147 145 145 143 143
141 143 154 156 153 148 140 131 124 115 106 101 97 95 95 94 91 91 89 89 94 98 103 106 108 109 115 123 129 136 144 145 145 144 133 131 143 150 153 151 150 149 147
137 141 164 155 154 151 145 139 131 120 112 105 100 96 93 91 86 85 84 83 88 89 94 105 105 106 112 122 127 131 140 145 142 137 126 129 139 154 157 157 158 156 154
138 146 168 154 154 152 148 142 135 125 116 108 102 97 92 88 81 75 73 75 82 86 87 94 97 95 96 126 137 134 129 135 134 120 124 134 148 159 161 162 162 158 156
142 148 164 155 157 157 153 145 138 129 122 115 107 99 89 82 76 67 64 61 71 85 87 86 87 88 79 105 140 132 127 131 122 120 126 136 154 157 159 161 163 158 155
142 142 151 160 159 161 158 152 143 135 126 118 112 93 79 78 74 61 52 49 56 76 89 97 98 97 85 94 133 137 133 132 125 126 128 137 148 154 158 156 155 155 153
132 132 146 159 163 164 163 158 153 145 132 121 110 87 68 62 57 50 41 39 40 59 81 90 97 102 105 103 116 127 133 133 117 127 139 144 155 163 165 156 155 157 158
128 138 151 146 139 146 165 172 168 162 155 136 75 40 44 32 22 17 12 24 34 41 55 60 84 102 115 115 120 127 130 127 113 125 138 153 159 166 166 163 160 161 163
164 166 165 166 153 132 163 190 180 187 194 358 0 16 24 16 7 355 359 1 11 26 35 49 77 100 111 111 116 124 122 112 119 125 145 158 166 166 164 166 165 165 164
190 191 182 183 174 153 191 108 70 124 27 17 13 23 32 30 6 19 7 13 16 18 21 41 76 93 100 97 103 103 99 109 119 134 152 161 167 168 170 172 171 173 170
191 191 192 187 180 171 172 142 79 50 27 6 15 31 46 40 17 17 10 4 3 10 15 39 65 73 84 95 97 99 106 105 112 134 156 163 165 173 180 181 182 181 179
177 194 189 183 181 185 163 166 166 159 63 25 10 36 66 48 20 9 10 359 8 11 32 51 68 69 81 93 105 110 108 108 108 111 161 164 171 181 189 192 193 193 191
181 192 186 177 180 174 160 178 156 183 166 135 40 36 80 82 27 12 3 12 14 22 37 50 63 71 84 95 102 111 108 103 98 79 123 165 170 180 195 199 201 204 201
187 190 180 174 176 161 165 171 162 155 146 91 52 358 90 108 72 38 22 23 15 21 42 60 64 72 71 84 86 98 106 101 90 77 44 136 170 178 194 202 203 200 202
188 182 175 174 167 164 175 183 159 151 145 155 215 42 90 95 93 70 39 24 6 24 55 71 68 65 72 80 86 96 106 119 119 100 80 48 53 179 196 210 206 200 202
178 174 179 174 167 175 178 173 157 153 152 177 171 86 99 111 107 86 52 2 1 49 69 84 78 77 68 72 72 66 91 111 123 103 84 85 58 22 24 253 220 204 205
180 174 174 173 170 175 173 161 151 139 131 157 110 96 92 94 100 102 76 22 52 73 70 88 78 92 93 76 70 54 51 56 31 57 77 93 96 61 13 343 103 122 207
177 171 176 175 170 162 156 137 115 82 58 62 105 131 110 82 94 107 98 59 71 75 66 87 96 78 92 94 75 51 32 31 38 55 16 53 71 104 58 15 16 337 289
173 172 178 174 170 157 154 159 158 178 175 48 224 137 138 118 107 109 103 87 90 99 105 107 110 95 66 79 82 45 25 34 39 35 28 42 40 29 56 43 12 356 328
182 183 180 178 170 171 173 166 154 139 142 147 43 50 65 101 108 126 118 126 119 117 93 78 116 117 67 64 105 92 34 10 6 16 22 49 12 14 13 346 291 319 319
189 188 185 180 174 171 161 132 102 82 64 62 49 6 316 180 149 133 146 139 133 138 148 167 121 142 153 61 94 139 139 196 317 349 356 27 19 21 336 333 340 314 273
198 189 178 174 169 166 157 151 149 156 173 195 179 185 316 221 170 158 152 149 153 152 165 211 166 151 156 177 139 78 146 156 156 287 339 349 7 10 312 333 355 357 336
185 175 171 164 165 162 160 162 162 171 185 151 111 99 7 324 252 182 163 155 160 170 177 171 166 164 166 176 177 159 127 102 134 155 245 323 351 333 302 305 328 347 1
158 158 159 158 164 164 165 165 168 172 173 155 145 164 244 262 285 294 165 153 168 178 185 187 183 161 166 157 164 180 176 174 182 167 187 219 273 311 357 359 338 326 348